Torna al catalogo

STARLINK-31100

AttivoComunicazioniVLEO
NORAD 58714·PAYLOAD·🇺🇸 United States

Lanciato Jan 3, 2024 da Vandenberg Space Force Base

Loading…

Prossimi Passaggi (prossime 24 ore)

TLE

AggiornatoSource: CelesTrak SupGP

Epoca: Sep 14, 2026, 21:33 UTC

1 58714C 24002K   26257.89840278  .00024141  00000+0  71345-3 0  2572
2 58714  53.1592  69.6270 0001157  80.8154 313.9412 15.34370122    14

Traccia STARLINK-31100 in tempo reale con AllMySat

Download on the App Store